Weather History for Denton, TX

Change the Weather History Date:

Sunday, November 4, 2012

  Actual Average Record
Temperature  
Mean Temperature 62 °F -  
Max Temperature 73 °F 66 °F 84 °F (2007)
Min Temperature 50 °F 46 °F 28 °F (2011)
Degree Days  
Heating Degree Days 4    
Growing Degree Days 12 (Base 50)    
Moisture  
Dew Point 40 °F    
Average Humidity 50    
Maximum Humidity 71    
Minimum Humidity 31    
Precipitation  
Precipitation 0.00 in - - ()
Sea Level Pressure  
Sea Level Pressure 30.09 in    
Wind  
Wind Speed 5 mph (North)    
Max Wind Speed 8 mph    
Max Gust Speed -    
Visibility 10 miles    
Events      
Averages and records for this station are not official NWS values.
T = Trace of Precipitation, MM = Missing Value Source: NWS Daily Summary

Daily Weather History Graph

Daily Weather History Graph

Search for Another Location

Airport:

Trip Planner

Search our weather history database for the weather conditions in past years. The results will help you decide how hot, cold, wet, or windy it might be!

Date:

Astronomy

Nov. 04, 2012 Rise Set
Actual Time 6:50 AM CST 5:34 PM CST
Civil Twilight 6:24 AM CST 5:59 PM CST
Nautical Twilight 5:55 AM CST 6:29 PM CST
Astronomical Twilight 5:25 AM CST 6:58 PM CST
Moon 10:15 PM CST (11/4) 11:31 AM CST (11/4)
Length of Visible Light 11h 35m
Length of Day
10h 43m
Waning Gibbous, 72% of the Moon is Illuminated
Nov 4
Waning Gibbous
Nov 6
Last Quarter
Nov 13
New
Nov 20
First Quarter
Nov 28
Full

Hourly Weather History & Observations

Time (CST) Temp. Dew Point Humidity Pressure Visibility Wind Dir Wind Speed Gust Speed Precip Events Conditions
12:53 AM 53.1 °F 39.9 °F 61% 30.11 in 10.0 mi NNE 5.8 mph - N/A   Partly Cloudy
1:53 AM 55.0 °F 41.0 °F 59% 30.10 in 10.0 mi North 4.6 mph - N/A   Scattered Clouds
1:53 AM 54.0 °F 39.0 °F 57% 30.09 in 10.0 mi North 8.1 mph - N/A   Clear
2:53 AM 54.0 °F 37.9 °F 55% 30.10 in 10.0 mi North 4.6 mph - N/A   Clear
3:53 AM 53.1 °F 37.9 °F 57% 30.10 in 10.0 mi North 3.5 mph - N/A   Clear
4:53 AM 53.1 °F 37.9 °F 57% 30.12 in 10.0 mi North 5.8 mph - N/A   Partly Cloudy
5:53 AM 53.1 °F 37.9 °F 57% 30.12 in 10.0 mi North 5.8 mph - N/A   Scattered Clouds
6:53 AM 52.0 °F 37.9 °F 59% 30.13 in 10.0 mi NNW 4.6 mph - N/A   Partly Cloudy
7:53 AM 54.0 °F 39.0 °F 57% 30.14 in 10.0 mi North 4.6 mph - N/A   Clear
8:53 AM 57.9 °F 39.0 °F 49% 30.14 in 10.0 mi NNE 6.9 mph - N/A   Clear
9:53 AM 61.0 °F 41.0 °F 48% 30.15 in 10.0 mi Variable 3.5 mph - N/A   Clear
10:53 AM 64.0 °F 41.0 °F 43% 30.15 in 10.0 mi West 3.5 mph - N/A   Clear
11:53 AM 66.9 °F 41.0 °F 39% 30.12 in 10.0 mi Variable 5.8 mph - N/A   Clear
12:53 PM 70.0 °F 39.9 °F 33% 30.10 in 10.0 mi Variable 4.6 mph - N/A   Clear
1:53 PM 72.0 °F 39.9 °F 31% 30.08 in 10.0 mi NE 6.9 mph - N/A   Clear
2:53 PM 73.0 °F 41.0 °F 31% 30.06 in 10.0 mi ENE 3.5 mph - N/A   Clear
3:53 PM 72.0 °F 39.9 °F 31% 30.04 in 10.0 mi Calm Calm - N/A   Clear
4:53 PM 71.1 °F 39.9 °F 32% 30.04 in 10.0 mi Calm Calm - N/A   Clear
5:53 PM 66.9 °F 39.9 °F 37% 30.05 in 10.0 mi ENE 3.5 mph - N/A   Clear
6:53 PM 63.0 °F 41.0 °F 45% 30.06 in 10.0 mi ENE 3.5 mph - N/A   Clear
7:53 PM 59.0 °F 41.0 °F 51% 30.06 in 10.0 mi Calm Calm - N/A   Clear
8:53 PM 52.0 °F 41.0 °F 66% 30.07 in 10.0 mi NNW 4.6 mph - N/A   Clear
9:53 PM 50.0 °F 41.0 °F 71% 30.07 in 10.0 mi NW 3.5 mph - N/A   Clear
10:53 PM 50.0 °F 41.0 °F 71% 30.08 in 10.0 mi NW 3.5 mph - N/A   Clear